Wind_Speed
15 15 16 16 14 13 13 15 16 18 19 20 23 26 25 26 29 29 30 34 32 25
16 15 14 12 12 14 15 15 18 21 24 24 26 27 30 30 30 31 34 30 28 29
18 15 14 13 13 14 13 18 21 22 22 25 28 29 30 32 31 30 31 33 32 32
19 16 14 14 15 15 18 18 21 21 25 29 31 32 29 29 33 31 34 35 32 30
20 15 14 14 14 14 17 19 21 25 28 31 29 31 33 35 36 37 35 34 32 30
18 15 15 13 14 16 18 21 24 25 29 29 33 34 35 34 35 35 36 31 33 32
19 16 14 15 16 17 18 23 25 26 28 30 33 32 32 32 33 29 30 31 34 33
19 17 16 15 16 18 22 24 21 22 26 29 30 30 25 28 30 31 34 35 34 29
17 15 16 15 16 20 20 17 18 23 26 28 28 28 27 28 29 31 32 32 32 34
17 16 13 13 16 13 13 18 22 23 25 28 29 28 27 28 29 31 33 30 31 35
15 12 11 12 9 11 16 20 22 23 26 27 28 28 28 28 27 28 32 30 33 31
11 11 10 8 11 16 19 21 21 23 26 27 26 28 20 26 28 28 30 31 25 25
13 12 9 11 14 17 18 19 19 24 25 22 25 20 27 26 25 24 27 24 26 27
13 10 10 13 16 18 18 17 21 23 23 23 17 25 26 25 27 23 23 23 29 30
Wind_Direction
225 234 243 246 247 265 276 290 296 301 297 297 299 301 302 299 297 296 295 292 287 282
228 229 240 244 252 270 278 279 296 297 293 295 300 301 302 295 295 294 296 289 282 287
222 226 238 253 265 274 277 292 295 293 298 300 301 302 302 294 294 292 293 293 286 285
216 223 244 254 264 277 285 291 295 299 304 302 301 302 302 298 296 292 290 289 285 287
209 226 245 252 268 277 290 294 297 303 301 300 302 305 303 300 297 294 290 289 285 286
213 227 238 255 274 285 288 296 299 298 298 300 306 305 301 300 300 296 294 286 293 289
210 222 242 267 276 282 293 296 296 297 300 304 306 306 306 305 300 298 298 297 298 292
220 231 248 260 274 287 292 292 293 301 307 308 308 306 302 304 303 305 303 303 303 292
214 230 246 260 276 286 288 296 305 309 309 308 308 305 305 304 303 303 303 301 306 303
223 222 242 263 278 280 297 308 309 308 309 307 308 310 307 307 306 305 306 305 305 304
206 225 242 263 269 292 306 305 304 306 310 308 307 308 308 308 313 310 309 308 312 306
211 231 236 250 282 299 296 295 300 310 311 307 310 312 317 321 320 319 318 319 321 314
227 220 233 269 282 290 291 293 301 309 307 301 307 311 323 321 321 312 313 317 319 316
214 228 252 272 281 284 292 289 303 301 304 307 303 317 319 317 317 316 318 324 320 317
Height
804 805 805 806 806 807 807 806 806 805 804 803 802 801 799 797 795 793 790 787 785 782
798 800 801 802 803 803 802 802 801 800 799 798 797 795 793 791 788 787 783 780 778 774
793 796 797 798 798 799 799 798 797 795 794 793 791 789 786 783 781 778 776 773 770 766
789 791 793 794 794 794 794 793 792 790 789 787 785 782 779 777 774 770 767 765 762 758
784 787 789 789 790 790 790 789 787 786 784 782 778 776 773 769 766 763 759 756 753 749
779 782 784 785 786 786 784 783 782 780 778 775 772 769 765 761 758 755 752 749 746 741
774 777 779 780 781 780 779 778 777 775 772 769 766 762 758 755 751 748 745 742 738 733
769 772 774 775 775 775 774 772 771 769 767 764 761 756 752 749 745 741 738 735 730 726
765 767 769 770 770 770 769 767 766 763 761 758 754 751 748 744 739 734 731 727 723 717
759 762 764 765 765 765 764 763 761 758 755 752 748 745 743 739 734 728 724 721 716 709
754 756 758 760 761 761 760 758 756 753 750 747 743 740 737 733 728 723 718 715 711 705
749 752 753 755 756 756 755 753 750 747 744 741 738 735 732 729 724 719 713 708 705 702
745 747 749 750 751 751 749 747 744 741 739 736 733 730 727 725 720 714 709 703 698 694
740 743 744 746 745 745 744 742 739 737 734 733 730 726 723 720 715 710 705 700 693 689